Regional Weather Roundup
Issued by NWS Austin/San Antonio, TX

Home | Current Version | Previous Version | Text Only | Print | Product List | Glossary On
Versions: 1 2 3 4 5 6 7 8 9 10 11 12 13 14 15 16 17 18 19 20 21 22 23 24 25 26 27 28 29 30 31 32 33 34 35 36 37 38 39 40 41 42 43 44 45 46 47 48 49 50
935
ASUS44 KEWX 232112
RWREWX
SOUTH TEXAS REGIONAL WEATHER ROUNDUP
NATIONAL WEATHER SERVICE AUSTIN/SAN ANTONIO TX
400 PM CDT SUN JUL 23 2017

NOTE: "FAIR" INDICATED FEW OR NO CLOUDS BELOW 12,000 FEET WITH NO
SIGNIFICANT WEATHER AND/OR OBSTRUCTIONS TO VISIBILITY.

* - THESE STATIONS ARE NOT NWS OR FAA STATIONS...AND ARE NOT SUBJECT
    TO NWS AND FAA QUALITY CONTROL.

TXZ171-172-183>190-232200-
TEXAS HILL COUNTRY AND EDWARDS PLATEAU

CITY           SKY/WX    TMP DP  RH WIND       PRES   REMARKS
JUNCTION       RAIN      78  72  81 NE21G33   29.93R
*LLANO         CLOUDY    75  72  88 S7        29.98R
BURNET         CLOUDY    86  65  49 W12       29.96R
*HORSESHOE BAY TSTM      73  71  91 SW10G17   29.96R
*KERRVILLE     MOSUNNY   97  67  38 SW6       29.90F HX 101
*FREDERICKSBRG TSTM      74  69  84 N16G32    29.96R
*ROCKSPRINGS   CLOUDY   N/A N/A N/A SE10      29.95F
*BOERNE STAGE  MOSUNNY   95  63  34 SE13G18   29.91S HX  96
*CASTROVILLE   MOSUNNY  102  60  24 SE7G21    29.86F HX 103
HONDO          SUNNY    103  63  27 S13G20    29.85F HX 105
*UVALDE        SUNNY    100  64  29 SE9G24    29.85F HX 103
DEL RIO        MOSUNNY  102  62  26 SE8       29.82F HX 104
LAUGHLIN AFB   MOSUNNY  100  63  29 S7G21     29.84F HX 102
CARRIZO SPRGS  MOSUNNY  102  63  27 SE12G18   29.82F HX 104
*EAGLE PASS    NOT AVBL
$$

TXZ173-191>194-202-209-217>225-228-232200-
CENTRAL AND SOUTH CENTRAL TEXAS

CITY           SKY/WX    TMP DP  RH WIND       PRES   REMARKS
GEORGETOWN     MOSUNNY   97  73  46 W7        29.88F HX 107
AUSTIN/BERGSTM PTSUNNY   98  68  37 S14       29.84F HX 103
AUSTIN/MABRY   LGT RAIN  92  69  47 SW3       29.87F HX  97
*AUSTIN/EXEC     N/A     99  68  36 S3        29.86F HX 104
*LAGO VISTA    MOSUNNY   80  69  69 W3        29.93S
SAN MARCOS     NOT AVBL
NEW BRAUNFELS  MOSUNNY   99  67  35 SE12G21   29.84F HX 103
RANDOLPH AFB   SUNNY    100  64  31 S14G20    29.85F HX 102
PT SAN ANTONIO MOSUNNY  101  65  30 S8        29.83F HX 103
SAN ANTONIO    MOSUNNY  100  65  31 SE15      29.85F HX 103
STINSON FIELD  SUNNY    103  64  28 SE17      29.82F HX 106
*LA GRANGE     MOSUNNY  100  71  39 S7        29.84F HX 107
*GIDDINGS      MOSUNNY   96  64  35 S9        29.86F HX  97
*GONZALES      SUNNY    100  72  40 SW8G16    29.84F HX 108
$$

TXZ163>164-176>182-195>201-210>213-226-227-235-232200-
SOUTHEAST TEXAS

CITY           SKY/WX    TMP DP  RH WIND       PRES   REMARKS
COLLEGE STN    MOSUNNY   99  69  37 S13       29.85F HX 105
*BRYAN         CLOUDY    97  68  39 S12       29.86F HX 101
*CALDWELL      NOT AVBL
*CROCKETT      PTSUNNY   93  75  55 SW7       29.88F HX 104
*BRENHAM       MOSUNNY   97  68  38 SE8       29.86F HX 102
HUNTSVILLE     MOSUNNY   91  71  51 S8        29.88F HX  97
CONROE         LGT RAIN  83  74  74 E3        29.89F
HOUSTON BUSH   CLOUDY    85  72  65 SE10      29.89F HX  91
HOUSTON HOBBY  PTSUNNY   95  73  48 S15       29.89F HX 104
*HOUSTON SW AP MOSUNNY   92  75  58 S8        29.91F HX 102
PEARLAND       MOSUNNY   94  71  47 S9        29.91F HX 101
HOUSTON HOOKS  PTSUNNY   89  71  55 S8        29.89F HX  95
ELLINGTON FLD  PTSUNNY   95  75  52 S12       29.92F HX 107
SUGAR LAND     MOSUNNY   93  74  53 S13G21    29.88F HX 103
*HOUSTON EXEC  MOSUNNY   95  72  46 S14       29.89F HX 103
*CLEVELAND MUN MOSUNNY   94  71  46 CALM      29.91F HX 101
*WHARTON       SUNNY     93  68  43 S15       29.90F HX  97
*COLUMBUS      FAIR      97  66  36 S9G17     29.87F HX 101
*EAGLE LAKE    CLEAR     98  72  42 SW12G17   29.87F HX 107
$$

TXZ214>216-236>238-232200-
THE UPPER TEXAS COAST

CITY           SKY/WX    TMP DP  RH WIND       PRES   REMARKS
*ORANGE        CLOUDY    86  79  78 S6        29.93F HX  99
PORT ARTHUR    CLOUDY    86  77  74 S14       29.91F HX  97
GALVESTON      PTSUNNY   90  77  65 SW17G26   29.93F HX 103
ANGLETON       MOSUNNY   92  76  59 S12G22    29.91F HX 104
*BAY CITY      MOSUNNY   92  74  55 S13       29.91F HX 102
PALACIOS       MOSUNNY   89  75  63 S15G22    29.91F HX  99
$$

TXZ229>234-239>247-232200-
TEXAS COASTAL BEND AND RIO GRANDE PLAINS

CITY           SKY/WX    TMP DP  RH WIND       PRES   REMARKS
VICTORIA       SUNNY     97  70  41 S12G24    29.88F HX 103
*BEEVILLE      PTSUNNY   99  71  41 SE17      29.85F HX 107
ROCKPORT       SUNNY     92  74  55 S15G26    29.88F HX 101
*PORT ARANSAS  SUNNY     88  75  64 S22G28    29.89F HX  97
*PORT LAVACA   MOSUNNY   91  72  53 S12G23    29.90F HX  98
*INGLESIDE     SUNNY     92  76  60 MISG      29.88F HX 105
CORPUS CHRISTI MOSUNNY   94  75  54 SE21G31   29.86F HX 105
CORPUS NAS     MOSUNNY   92  77  61 S25G32    29.87F HX 105
*ROBSTOWN      SUNNY     99  69  38 SE20G25   29.85F HX 105
ALICE          SUNNY    102  57  22 S16G24    29.83F HX 101
KINGSVILLE NAS SUNNY     99  76  47 SE22G31   29.84F HX 113
COTULLA        MOSUNNY  103  58  22 SE15      29.82F HX 102
*FAITH RANCH   MOSUNNY  102  61  25 VRB6G18   29.82F HX 103
LAREDO         SUNNY    103  66  30 SE16        N/A  HX 107
$$

TXZ248>255-232200-
DEEP SOUTH TEXAS

CITY           SKY/WX    TMP DP  RH WIND       PRES   REMARKS
BROWNSVILLE    SUNNY     92  73  53 S21G33    29.89F HX 100
PORT ISABEL    MOSUNNY   95  73  48 S25G35    29.88F HAZE    HX 104
*SOUTH PADRE   NOT AVBL
HARLINGEN      SUNNY     98  70  40 S26G32    29.86F HX 105
*HEBBRONVILLE  SUNNY     99  59  26 S13G22    29.85F HX  99
MCALLEN        SUNNY    102  70  35 SE23G29   29.84F HX 110
*WESLACO       SUNNY     97  69  40 S18G30    29.85F HX 102
FALFURRIAS     SUNNY    101  61  27 SE13G23   29.83F HX 102
EDINBURG       SUNNY    101  65  30 S18G24    29.85F HX 104
*ZAPATA        MOSUNNY  103  60  24 SE13G18   29.80F HX 103
$$

TXZ213>215-236>238-242>244-246-247-251-254-255-232200-
CMAN STATIONS

STATION/POSITION TIME  TEMP    WIND        PRES    WAVE
                       AIR SEA DIR/SP/G            HT/PER
                 (UTC) (F)     (DEG/KT/KT) (MB)    (FT/S)
SABINE PASS      2048   88 88  200/ 14/ 19 1014.8
SEA RIM ST PARK  2100   87     220/ 17/ 20 1013.7
NORTH JETTY/GLS  2048          190/ 20/ 22   N/A
EAGLE POINT      2048   88 89  200/ 19/ 23 1013.0
MORGANS POINT    2048   91 88  200/ 10/ 14 1012.4
MISSION/ARANSAS  2000          160/ 20     1013.0
PORT O`CONNOR    2048   86     180/ 18/ 20 1012.2
PORT ARANSAS     2100   85 87  150/ 23/ 25 1012.0
MALAQUITE BEACH  2048   85 87  150/ 24/ 27 1011.3
BAFFIN BAY       2048   86 90              1011.8
PORT ISABEL      2048   89 85              1012.4
$$




USA.gov is the U.S. government's official web portal to all federal, state and local government web resources and services.